| time (UTC) | temp F | wind direction | speed MPH | gust MPH | rain 1hr in | rain 24hr in | rain mn in | humidity % | barometer mb |
| 20260508104805 | 54 | 46 | 2.0 | 5.0 | 0.00 | 0.00 | 0.00 | 52 | 1015.4 |
| 20260508104305 | 54 | 137 | 2.0 | 3.0 | 0.00 | 0.00 | 0.00 | 52 | 1015.4 |
| 20260508103806 | 54 | 56 | 1.0 | 5.0 | 0.00 | 0.00 | 0.00 | 51 | 1015.4 |
| 20260508103305 | 54 | 243 | 3.0 | 6.0 | 0.00 | 0.00 | 0.00 | 51 | 1015.5 |
| 20260508102805 | 54 | 225 | 4.0 | 8.0 | 0.00 | 0.00 | 0.00 | 50 | 1015.4 |
| 20260508102306 | 54 | 267 | 5.0 | 10.0 | 0.00 | 0.00 | 0.00 | 50 | 1015.4 |
| 20260508101804 | 54 | 257 | 6.0 | 8.0 | 0.00 | 0.00 | 0.00 | 51 | 1015.4 |
| 20260508101304 | 54 | 279 | 5.0 | 9.0 | 0.00 | 0.00 | 0.00 | 50 | 1015.4 |
| 20260508100804 | 54 | 286 | 5.0 | 9.0 | 0.00 | 0.00 | 0.00 | 50 | 1015.4 |
| 20260508100304 | 54 | 283 | 6.0 | 10.0 | 0.00 | 0.00 | 0.00 | 49 | 1015.4 |
| 20260508095805 | 54 | 281 | 5.0 | 9.0 | 0.00 | 0.00 | 0.00 | 49 | 1015.4 |
| 20260508095306 | 54 | 259 | 5.0 | 9.0 | 0.00 | 0.00 | 0.00 | 48 | 1015.4 |
| 20260508094805 | 55 | 302 | 5.0 | 10.0 | 0.00 | 0.00 | 0.00 | 47 | 1015.3 |
| 20260508094305 | 55 | 275 | 6.0 | 12.0 | 0.00 | 0.00 | 0.00 | 46 | 1015.3 |
| 20260508093804 | 55 | 288 | 5.0 | 10.0 | 0.00 | 0.00 | 0.00 | 46 | 1015.3 |
| 20260508093305 | 54 | 275 | 5.0 | 8.0 | 0.00 | 0.00 | 0.00 | 48 | 1015.3 |
| 20260508092804 | 54 | 282 | 6.0 | 10.0 | 0.00 | 0.00 | 0.00 | 48 | 1015.2 |
| 20260508092312 | 55 | 253 | 6.0 | 9.0 | 0.00 | 0.00 | 0.00 | 47 | 1015.3 |
| 20260508091805 | 55 | 260 | 5.0 | 8.0 | 0.00 | 0.00 | 0.00 | 47 | 1015.3 |
| 20260508091304 | 55 | 271 | 4.0 | 8.0 | 0.00 | 0.00 | 0.00 | 47 | 1015.3 |
| 20260508090805 | 55 | 256 | 3.0 | 8.0 | 0.00 | 0.00 | 0.00 | 47 | 1015.2 |
| 20260508090305 | 55 | 254 | 6.0 | 8.0 | 0.00 | 0.00 | 0.00 | 46 | 1015.2 |
| 20260508085804 | 55 | 272 | 7.0 | 9.0 | 0.00 | 0.00 | 0.00 | 46 | 1015.2 |
| 20260508085307 | 55 | 253 | 6.0 | 10.0 | 0.00 | 0.00 | 0.00 | 46 | 1015.2 |
| 20260508084805 | 55 | 269 | 6.0 | 10.0 | 0.00 | 0.00 | 0.00 | 46 | 1015.2 |
| 20260508084305 | 55 | 258 | 7.0 | 10.0 | 0.00 | 0.00 | 0.00 | 46 | 1015.2 |
| 20260508083806 | 55 | 265 | 7.0 | 12.0 | 0.00 | 0.00 | 0.00 | 45 | 1015.2 |
| 20260508082804 | 55 | 292 | 6.0 | 12.0 | 0.00 | 0.00 | 0.00 | 45 | 1015.2 |
| 20260508082306 | 56 | 291 | 6.0 | 10.0 | 0.00 | 0.00 | 0.00 | 44 | 1015.2 |
| 20260508081805 | 56 | 286 | 5.0 | 10.0 | 0.00 | 0.00 | 0.00 | 43 | 1015.1 |
| 20260508081304 | 56 | 299 | 5.0 | 12.0 | 0.00 | 0.00 | 0.00 | 42 | 1015.1 |
| 20260508080805 | 56 | 276 | 6.0 | 10.0 | 0.00 | 0.00 | 0.00 | 42 | 1015.1 |
| 20260508080305 | 56 | 297 | 5.0 | 10.0 | 0.00 | 0.00 | 0.00 | 42 | 1015.1 |
| 20260508075805 | 57 | 292 | 4.0 | 8.0 | 0.00 | 0.00 | 0.00 | 41 | 1015.1 |
| 20260508075308 | 57 | 284 | 4.0 | 8.0 | 0.00 | 0.00 | 0.00 | 42 | 1015.1 |
| 20260508074805 | 57 | 292 | 3.0 | 8.0 | 0.00 | 0.00 | 0.00 | 40 | 1015.1 |
| 20260508074304 | 58 | 288 | 3.0 | 7.0 | 0.00 | 0.00 | 0.00 | 39 | 1015.1 |
| 20260508073804 | 58 | 266 | 4.0 | 8.0 | 0.00 | 0.00 | 0.00 | 38 | 1015.0 |
| 20260508073305 | 58 | 267 | 5.0 | 8.0 | 0.00 | 0.00 | 0.00 | 37 | 1015.1 |
| 20260508072804 | 59 | 283 | 4.0 | 8.0 | 0.00 | 0.00 | 0.00 | 36 | 1015.0 |
| 20260508072307 | 59 | 186 | 2.0 | 3.0 | 0.00 | 0.00 | 0.00 | 33 | 1015.0 |
| 20260508071304 | 60 | 234 | 2.0 | 5.0 | 0.00 | 0.00 | 0.00 | 32 | 1014.9 |
| 20260508070304 | 60 | 222 | 2.0 | 5.0 | 0.00 | 0.00 | 0.00 | 32 | 1014.9 |
| 20260508065805 | 60 | 236 | 2.0 | 7.0 | 0.00 | 0.00 | 0.00 | 33 | 1015.0 |
| 20260508065307 | 59 | 207 | 3.0 | 7.0 | 0.00 | 0.00 | 0.00 | 34 | 1015.0 |
| 20260508064804 | 60 | 210 | 2.0 | 5.0 | 0.00 | 0.00 | 0.00 | 34 | 1015.0 |
| 20260508064304 | 60 | 203 | 2.0 | 6.0 | 0.00 | 0.00 | 0.00 | 32 | 1015.0 |
| 20260508063804 | 60 | 208 | 3.0 | 7.0 | 0.00 | 0.00 | 0.00 | 33 | 1014.9 |
| 20260508063305 | 60 | 264 | 2.0 | 9.0 | 0.00 | 0.00 | 0.00 | 34 | 1015.0 |
| 20260508062804 | 60 | 228 | 4.0 | 7.0 | 0.00 | 0.00 | 0.00 | 32 | 1015.1 |
| 20260508062306 | 60 | 217 | 2.0 | 5.0 | 0.00 | 0.00 | 0.00 | 34 | 1015.0 |
| 20260508061805 | 60 | 237 | 1.0 | 3.0 | 0.00 | 0.00 | 0.00 | 34 | 1015.0 |
| 20260508061304 | 61 | 163 | 3.0 | 5.0 | 0.00 | 0.00 | 0.00 | 34 | 1014.9 |
| 20260508060805 | 61 | 207 | 2.0 | 3.0 | 0.00 | 0.00 | 0.00 | 33 | 1015.0 |
| 20260508060305 | 62 | 235 | 2.0 | 6.0 | 0.00 | 0.00 | 0.00 | 33 | 1015.0 |
| 20260508055306 | 62 | 217 | 3.0 | 6.0 | 0.00 | 0.00 | 0.00 | 32 | 1015.0 |
| 20260508054805 | 62 | 215 | 3.0 | 8.0 | 0.00 | 0.00 | 0.00 | 32 | 1015.0 |
| 20260508054305 | 61 | 228 | 3.0 | 7.0 | 0.00 | 0.00 | 0.00 | 33 | 1014.9 |
| 20260508053805 | 61 | 167 | 3.0 | 5.0 | 0.00 | 0.00 | 0.00 | 33 | 1014.9 |
| 20260508053305 | 61 | 202 | 3.0 | 8.0 | 0.00 | 0.00 | 0.00 | 34 | 1015.0 |
| 20260508052805 | 61 | 173 | 2.0 | 7.0 | 0.00 | 0.00 | 0.00 | 33 | 1015.1 |
| 20260508052307 | 61 | 202 | 2.0 | 6.0 | 0.00 | 0.00 | 0.00 | 33 | 1015.1 |
| 20260508051804 | 62 | 200 | 2.0 | 3.0 | 0.00 | 0.00 | 0.00 | 33 | 1014.9 |
| 20260508051304 | 62 | 183 | 3.0 | 8.0 | 0.00 | 0.00 | 0.00 | 32 | 1015.1 |
| 20260508050805 | 62 | 213 | 3.0 | 7.0 | 0.00 | 0.00 | 0.00 | 34 | 1015.0 |
| 20260508050305 | 62 | 159 | 2.0 | 7.0 | 0.00 | 0.00 | 0.00 | 33 | 1015.0 |
| 20260508045804 | 62 | 208 | 3.0 | 7.0 | 0.00 | 0.00 | 0.00 | 34 | 1015.0 |
| 20260508045307 | 62 | 222 | 2.0 | 7.0 | 0.00 | 0.00 | 0.00 | 34 | 1015.0 |
| 20260508044304 | 62 | 209 | 3.0 | 9.0 | 0.00 | 0.00 | 0.00 | 33 | 1014.9 |
| 20260508043805 | 63 | 204 | 4.0 | 6.0 | 0.00 | 0.00 | 0.00 | 32 | 1014.8 |
| 20260508042805 | 63 | 176 | 3.0 | 5.0 | 0.00 | 0.00 | 0.00 | 33 | 1014.8 |
| 20260508042307 | 63 | 223 | 3.0 | 8.0 | 0.00 | 0.00 | 0.00 | 32 | 1014.8 |
| 20260508041805 | 63 | 177 | 3.0 | 6.0 | 0.00 | 0.00 | 0.00 | 32 | 1014.8 |
| 20260508041305 | 63 | 192 | 3.0 | 6.0 | 0.00 | 0.00 | 0.00 | 32 | 1014.8 |
| 20260508040804 | 63 | 213 | 3.0 | 5.0 | 0.00 | 0.00 | 0.00 | 33 | 1014.7 |
| 20260508035804 | 63 | 168 | 2.0 | 6.0 | 0.00 | 0.00 | 0.00 | 34 | 1014.6 |
| 20260508035306 | 63 | 161 | 2.0 | 5.0 | 0.00 | 0.00 | 0.00 | 32 | 1014.5 |
| 20260508034806 | 64 | 168 | 2.0 | 7.0 | 0.00 | 0.00 | 0.00 | 32 | 1014.5 |
| 20260508034305 | 63 | 240 | 5.0 | 10.0 | 0.00 | 0.00 | 0.00 | 32 | 1014.6 |
| 20260508033804 | 64 | 237 | 2.0 | 10.0 | 0.00 | 0.00 | 0.00 | 31 | 1014.5 |
| 20260508033304 | 63 | 242 | 5.0 | 12.0 | 0.00 | 0.00 | 0.00 | 31 | 1014.5 |
| 20260508032804 | 62 | 203 | 2.0 | 5.0 | 0.00 | 0.00 | 0.00 | 31 | 1014.4 |
| 20260508031805 | 64 | 215 | 2.0 | 5.0 | 0.00 | 0.00 | 0.00 | 29 | 1014.3 |
| 20260508031304 | 64 | 236 | 3.0 | 9.0 | 0.00 | 0.00 | 0.00 | 29 | 1014.2 |
| 20260508030804 | 64 | 175 | 3.0 | 6.0 | 0.00 | 0.00 | 0.00 | 28 | 1014.3 |
| 20260508025804 | 65 | 275 | 4.0 | 7.0 | 0.00 | 0.00 | 0.00 | 26 | 1014.1 |
| 20260508024805 | 66 | 2 | 3.0 | 6.0 | 0.00 | 0.00 | 0.00 | 25 | 1014.3 |
| 20260508023804 | 67 | 151 | 6.0 | 9.0 | 0.00 | 0.00 | 0.00 | 23 | 1014.2 |
| 20260508023305 | 67 | 170 | 4.0 | 8.0 | 0.00 | 0.00 | 0.00 | 23 | 1014.2 |
| 20260508022804 | 67 | 156 | 2.0 | 5.0 | 0.00 | 0.00 | 0.00 | 22 | 1014.1 |
| 20260508022307 | 68 | 311 | 2.0 | 5.0 | 0.00 | 0.00 | 0.00 | 22 | 1014.1 |
| 20260508021804 | 68 | 269 | 6.0 | 12.0 | 0.00 | 0.00 | 0.00 | 22 | 1014.1 |
| 20260508021304 | 69 | 251 | 7.0 | 13.0 | 0.00 | 0.00 | 0.00 | 22 | 1014.1 |
| 20260508020804 | 69 | 267 | 4.0 | 12.0 | 0.00 | 0.00 | 0.00 | 21 | 1014.1 |
| 20260508015805 | 69 | 326 | 5.0 | 12.0 | 0.00 | 0.00 | 0.00 | 20 | 1014.1 |
| 20260508015306 | 69 | 292 | 4.0 | 7.0 | 0.00 | 0.00 | 0.00 | 21 | 1014.1 |
| 20260508014304 | 69 | 241 | 3.0 | 9.0 | 0.00 | 0.00 | 0.00 | 20 | 1014.1 |
| 20260508013805 | 69 | 333 | 4.0 | 10.0 | 0.00 | 0.00 | 0.00 | 20 | 1014.2 |
| 20260508013305 | 69 | 200 | 7.0 | 14.0 | 0.00 | 0.00 | 0.00 | 19 | 1014.1 |
| 20260508012804 | 70 | 293 | 4.0 | 13.0 | 0.00 | 0.00 | 0.00 | 20 | 1014.1 |
| 20260508012307 | 70 | 217 | 6.0 | 15.0 | 0.00 | 0.00 | 0.00 | 21 | 1014.1 |
| 20260508011804 | 70 | 320 | 4.0 | 12.0 | 0.00 | 0.00 | 0.00 | 20 | 1014.2 |
| 20260508011304 | 70 | 290 | 6.0 | 13.0 | 0.00 | 0.00 | 0.00 | 20 | 1014.2 |
| 20260508005805 | 70 | 311 | 6.0 | 16.0 | 0.00 | 0.00 | 0.00 | 20 | 1014.2 |
| 20260508005306 | 70 | 308 | 6.0 | 15.0 | 0.00 | 0.00 | 0.00 | 20 | 1014.2 |
| 20260508004804 | 69 | 310 | 5.0 | 14.0 | 0.00 | 0.00 | 0.00 | 20 | 1014.2 |
| 20260508004305 | 69 | 274 | 6.0 | 16.0 | 0.00 | 0.00 | 0.00 | 20 | 1014.2 |
| 20260508002805 | 69 | 278 | 7.0 | 17.0 | 0.00 | 0.00 | 0.00 | 21 | 1014.1 |
| 20260508002306 | 69 | 264 | 8.0 | 15.0 | 0.00 | 0.00 | 0.00 | 20 | 1014.0 |
| 20260508000804 | 69 | 268 | 9.0 | 18.0 | 0.00 | 0.00 | 0.00 | 21 | 1013.9 |
| 20260508000305 | 70 | 271 | 11.0 | 21.0 | 0.00 | 0.00 | 0.00 | 22 | 1014.0 |
| 20260507235805 | 70 | 249 | 9.0 | 16.0 | 0.00 | 0.00 | 0.00 | 21 | 1014.0 |
| 20260507235306 | 70 | 285 | 9.0 | 20.0 | 0.00 | 0.00 | 0.00 | 22 | 1013.9 |
| 20260507234805 | 70 | 259 | 8.0 | 20.0 | 0.00 | 0.00 | 0.00 | 24 | 1013.9 |
| 20260507233805 | 70 | 290 | 6.0 | 17.0 | 0.00 | 0.00 | 0.00 | 20 | 1014.0 |
| 20260507233305 | 70 | 285 | 10.0 | 18.0 | 0.00 | 0.00 | 0.00 | 23 | 1013.9 |
| 20260507232306 | 70 | 270 | 10.0 | 22.0 | 0.00 | 0.00 | 0.00 | 22 | 1014.0 |
| 20260507231805 | 70 | 257 | 12.0 | 18.0 | 0.00 | 0.00 | 0.00 | 25 | 1014.0 |
| 20260507231305 | 70 | 267 | 9.0 | 20.0 | 0.00 | 0.00 | 0.00 | 19 | 1014.0 |
| 20260507230804 | 70 | 260 | 7.0 | 21.0 | 0.00 | 0.00 | 0.00 | 21 | 1014.2 |
| 20260507230304 | 70 | 258 | 10.0 | 23.0 | 0.00 | 0.00 | 0.00 | 24 | 1014.3 |
| 20260507225804 | 70 | 277 | 10.0 | 18.0 | 0.00 | 0.00 | 0.00 | 24 | 1014.2 |
| 20260507224805 | 70 | 264 | 12.0 | 21.0 | 0.00 | 0.00 | 0.00 | 25 | 1014.2 |
| 20260507223804 | 70 | 263 | 9.0 | 16.0 | 0.00 | 0.01 | 0.00 | 22 | 1014.3 |
| 20260507223305 | 70 | 253 | 8.0 | 21.0 | 0.00 | 0.01 | 0.00 | 23 | 1014.4 |
| 20260507222306 | 70 | 315 | 6.0 | 17.0 | 0.00 | 0.01 | 0.00 | 22 | 1014.5 |
| 20260507221804 | 70 | 282 | 7.0 | 17.0 | 0.00 | 0.01 | 0.00 | 26 | 1014.5 |
| 20260507221304 | 69 | 289 | 8.0 | 17.0 | 0.00 | 0.01 | 0.00 | 28 | 1014.5 |
| 20260507220305 | 69 | 283 | 6.0 | 21.0 | 0.00 | 0.01 | 0.00 | 27 | 1014.7 |
| 20260507215804 | 69 | 254 | 11.0 | 20.0 | 0.00 | 0.01 | 0.00 | 30 | 1014.7 |
| 20260507214805 | 68 | 267 | 9.0 | 22.0 | 0.00 | 0.01 | 0.00 | 28 | 1014.8 |
| 20260507214304 | 68 | 284 | 9.0 | 21.0 | 0.00 | 0.01 | 0.00 | 27 | 1014.8 |
| 20260507213804 | 68 | 274 | 13.0 | 25.0 | 0.00 | 0.01 | 0.00 | 34 | 1014.8 |
| 20260507213304 | 68 | 276 | 13.0 | 23.0 | 0.00 | 0.01 | 0.00 | 30 | 1014.9 |
| 20260507212805 | 68 | 271 | 12.0 | 28.0 | 0.00 | 0.01 | 0.00 | 31 | 1015.0 |
| 20260507212307 | 68 | 267 | 13.0 | 23.0 | 0.00 | 0.01 | 0.00 | 31 | 1015.0 |
| 20260507211805 | 68 | 263 | 10.0 | 21.0 | 0.00 | 0.01 | 0.00 | 30 | 1015.0 |
| 20260507211304 | 68 | 312 | 9.0 | 21.0 | 0.00 | 0.01 | 0.00 | 30 | 1015.1 |
| 20260507210804 | 67 | 281 | 11.0 | 20.0 | 0.00 | 0.01 | 0.00 | 30 | 1015.2 |
| 20260507210305 | 67 | 257 | 10.0 | 21.0 | 0.00 | 0.01 | 0.00 | 32 | 1015.2 |
| 20260507205804 | 67 | 256 | 13.0 | 21.0 | 0.00 | 0.01 | 0.00 | 32 | 1015.3 |
| 20260507205306 | 67 | 287 | 5.0 | 21.0 | 0.00 | 0.01 | 0.00 | 32 | 1015.4 |
| 20260507204804 | 67 | 284 | 11.0 | 23.0 | 0.00 | 0.01 | 0.00 | 33 | 1015.5 |
| 20260507204305 | 67 | 288 | 12.0 | 20.0 | 0.00 | 0.01 | 0.00 | 34 | 1015.5 |
| 20260507203804 | 67 | 261 | 9.0 | 18.0 | 0.00 | 0.01 | 0.00 | 34 | 1015.6 |
| 20260507203304 | 66 | 280 | 9.0 | 22.0 | 0.00 | 0.01 | 0.00 | 32 | 1015.7 |
| 20260507202805 | 66 | 288 | 11.0 | 20.0 | 0.00 | 0.01 | 0.00 | 36 | 1015.7 |
| 20260507202307 | 66 | 289 | 10.0 | 20.0 | 0.00 | 0.01 | 0.00 | 34 | 1015.9 |
| 20260507201804 | 66 | 278 | 9.0 | 21.0 | 0.00 | 0.01 | 0.00 | 34 | 1015.9 |
| 20260507201304 | 65 | 329 | 4.0 | 18.0 | 0.00 | 0.01 | 0.00 | 32 | 1016.0 |
| 20260507200805 | 65 | 254 | 7.0 | 20.0 | 0.00 | 0.01 | 0.00 | 34 | 1016.1 |
| 20260507200305 | 65 | 283 | 5.0 | 23.0 | 0.00 | 0.01 | 0.00 | 35 | 1016.2 |
| 20260507195805 | 65 | 280 | 5.0 | 13.0 | 0.00 | 0.01 | 0.00 | 36 | 1016.1 |
| 20260507195305 | 64 | 234 | 12.0 | 21.0 | 0.00 | 0.02 | 0.00 | 37 | 1016.2 |
| 20260507194804 | 64 | 294 | 13.0 | 25.0 | 0.00 | 0.02 | 0.00 | 38 | 1016.1 |
| 20260507193805 | 63 | 258 | 13.0 | 23.0 | 0.00 | 0.02 | 0.00 | 38 | 1016.3 |
| 20260507193304 | 63 | 263 | 11.0 | 25.0 | 0.00 | 0.02 | 0.00 | 39 | 1016.4 |
| 20260507191804 | 63 | 267 | 7.0 | 17.0 | 0.00 | 0.02 | 0.00 | 38 | 1016.5 |
| 20260507191304 | 62 | 294 | 12.0 | 23.0 | 0.00 | 0.02 | 0.00 | 41 | 1016.5 |
| 20260507190805 | 62 | 278 | 13.0 | 24.0 | 0.00 | 0.02 | 0.00 | 42 | 1016.4 |
| 20260507190304 | 62 | 263 | 12.0 | 25.0 | 0.00 | 0.02 | 0.00 | 41 | 1016.5 |
| 20260507185804 | 61 | 257 | 12.0 | 25.0 | 0.00 | 0.02 | 0.00 | 45 | 1016.5 |
| 20260507185306 | 61 | 277 | 10.0 | 24.0 | 0.00 | 0.02 | 0.00 | 43 | 1016.6 |
| 20260507184804 | 61 | 279 | 15.0 | 32.0 | 0.00 | 0.02 | 0.00 | 46 | 1016.5 |
| 20260507184304 | 60 | 262 | 13.0 | 28.0 | 0.00 | 0.02 | 0.00 | 47 | 1016.8 |
| 20260507183804 | 60 | 280 | 14.0 | 30.0 | 0.00 | 0.02 | 0.00 | 45 | 1016.7 |
| 20260507182805 | 60 | 276 | 15.0 | 31.0 | 0.00 | 0.02 | 0.00 | 48 | 1016.5 |
| 20260507182306 | 60 | 272 | 16.0 | 33.0 | 0.00 | 0.02 | 0.00 | 46 | 1016.7 |
| 20260507181804 | 59 | 283 | 14.0 | 29.0 | 0.00 | 0.02 | 0.00 | 47 | 1016.7 |
| 20260507180804 | 59 | 268 | 15.0 | 35.0 | 0.00 | 0.02 | 0.00 | 49 | 1016.6 |
| 20260507175306 | 58 | 267 | 16.0 | 29.0 | 0.00 | 0.02 | 0.00 | 50 | 1016.6 |
| 20260507174804 | 58 | 266 | 18.0 | 32.0 | 0.00 | 0.02 | 0.00 | 51 | 1016.7 |
| 20260507174304 | 58 | 265 | 18.0 | 31.0 | 0.00 | 0.02 | 0.00 | 51 | 1017.0 |
| 20260507173804 | 58 | 270 | 17.0 | 26.0 | 0.00 | 0.02 | 0.00 | 51 | 1017.1 |
| 20260507173305 | 58 | 274 | 14.0 | 31.0 | 0.00 | 0.02 | 0.00 | 50 | 1017.2 |
| 20260507172804 | 58 | 274 | 14.0 | 26.0 | 0.00 | 0.02 | 0.00 | 51 | 1017.1 |
| 20260507171804 | 57 | 282 | 11.0 | 32.0 | 0.00 | 0.02 | 0.00 | 51 | 1017.4 |
| 20260507171304 | 57 | 279 | 9.0 | 28.0 | 0.00 | 0.02 | 0.00 | 51 | 1017.6 |
| 20260507170804 | 57 | 286 | 13.0 | 22.0 | 0.00 | 0.02 | 0.00 | 52 | 1017.4 |
| 20260507170304 | 57 | 268 | 13.0 | 24.0 | 0.00 | 0.02 | 0.00 | 53 | 1017.6 |
| 20260507165804 | 56 | 295 | 12.0 | 24.0 | 0.00 | 0.02 | 0.00 | 52 | 1017.4 |
| 20260507165306 | 56 | 254 | 11.0 | 30.0 | 0.00 | 0.02 | 0.00 | 52 | 1017.5 |
| 20260507163803 | 56 | 260 | 13.0 | 24.0 | 0.00 | 0.02 | 0.00 | 54 | 1017.7 |
| 20260507162804 | 56 | 283 | 12.0 | 22.0 | 0.00 | 0.02 | 0.00 | 54 | 1017.6 |
| 20260507162307 | 56 | 290 | 12.0 | 24.0 | 0.00 | 0.02 | 0.00 | 54 | 1017.8 |
| 20260507161804 | 56 | 276 | 12.0 | 25.0 | 0.00 | 0.02 | 0.00 | 55 | 1017.9 |
| 20260507160805 | 55 | 269 | 10.0 | 22.0 | 0.00 | 0.02 | 0.00 | 55 | 1017.9 |
| 20260507155804 | 55 | 281 | 12.0 | 23.0 | 0.00 | 0.02 | 0.00 | 57 | 1017.9 |
| 20260507155306 | 55 | 271 | 5.0 | 18.0 | 0.00 | 0.02 | 0.00 | 57 | 1018.0 |
| 20260507154804 | 55 | 254 | 9.0 | 17.0 | 0.00 | 0.02 | 0.00 | 58 | 1018.2 |
| 20260507154304 | 54 | 252 | 6.0 | 16.0 | 0.00 | 0.02 | 0.00 | 57 | 1018.3 |
| 20260507153804 | 54 | 235 | 7.0 | 16.0 | 0.00 | 0.02 | 0.00 | 59 | 1018.3 |
| 20260507153305 | 54 | 267 | 6.0 | 21.0 | 0.00 | 0.02 | 0.00 | 60 | 1018.1 |
| 20260507152804 | 54 | 245 | 8.0 | 16.0 | 0.00 | 0.02 | 0.00 | 60 | 1018.2 |
| 20260507152306 | 54 | 253 | 9.0 | 18.0 | 0.00 | 0.02 | 0.00 | 60 | 1018.3 |
| 20260507151804 | 54 | 253 | 8.0 | 20.0 | 0.00 | 0.02 | 0.00 | 60 | 1018.2 |
| 20260507151305 | 54 | 293 | 5.0 | 12.0 | 0.00 | 0.02 | 0.00 | 61 | 1018.2 |
| 20260507150804 | 53 | 248 | 7.0 | 22.0 | 0.00 | 0.02 | 0.00 | 61 | 1017.9 |
| 20260507150305 | 53 | 238 | 8.0 | 24.0 | 0.00 | 0.02 | 0.00 | 62 | 1018.3 |
| 20260507145804 | 53 | 227 | 6.0 | 22.0 | 0.00 | 0.02 | 0.00 | 62 | 1018.4 |
| 20260507145307 | 53 | 281 | 9.0 | 21.0 | 0.00 | 0.02 | 0.00 | 62 | 1018.4 |
| 20260507144804 | 53 | 201 | 6.0 | 17.0 | 0.00 | 0.02 | 0.00 | 64 | 1018.4 |
| 20260507143805 | 53 | 279 | 6.0 | 17.0 | 0.00 | 0.02 | 0.00 | 64 | 1018.4 |
| 20260507143304 | 52 | 253 | 5.0 | 12.0 | 0.00 | 0.02 | 0.00 | 64 | 1018.2 |
| 20260507142804 | 52 | 268 | 5.0 | 14.0 | 0.00 | 0.02 | 0.00 | 64 | 1018.2 |
| 20260507142306 | 52 | 266 | 6.0 | 14.0 | 0.00 | 0.02 | 0.00 | 64 | 1018.0 |
| 20260507140804 | 52 | 235 | 6.0 | 17.0 | 0.00 | 0.02 | 0.00 | 65 | 1018.2 |
| 20260507140304 | 52 | 216 | 10.0 | 20.0 | 0.00 | 0.02 | 0.00 | 64 | 1017.9 |
| 20260507135805 | 53 | 263 | 12.0 | 24.0 | 0.00 | 0.02 | 0.00 | 64 | 1017.8 |
| 20260507135306 | 53 | 252 | 12.0 | 23.0 | 0.00 | 0.02 | 0.00 | 63 | 1017.8 |
| 20260507134804 | 53 | 262 | 12.0 | 25.0 | 0.00 | 0.02 | 0.00 | 64 | 1017.7 |
| 20260507134304 | 53 | 284 | 12.0 | 22.0 | 0.00 | 0.02 | 0.00 | 63 | 1017.7 |
| 20260507133304 | 53 | 262 | 11.0 | 22.0 | 0.00 | 0.02 | 0.00 | 64 | 1017.7 |
| 20260507132804 | 53 | 245 | 7.0 | 20.0 | 0.00 | 0.02 | 0.00 | 65 | 1017.8 |
| 20260507132307 | 53 | 271 | 7.0 | 18.0 | 0.00 | 0.02 | 0.00 | 64 | 1017.8 |
| 20260507131805 | 53 | 282 | 6.0 | 17.0 | 0.00 | 0.02 | 0.00 | 65 | 1017.7 |
| 20260507131303 | 53 | 267 | 9.0 | 18.0 | 0.00 | 0.02 | 0.00 | 65 | 1017.9 |
| 20260507130805 | 53 | 278 | 9.0 | 21.0 | 0.00 | 0.02 | 0.00 | 64 | 1017.7 |
| 20260507130304 | 53 | 249 | 7.0 | 20.0 | 0.00 | 0.02 | 0.00 | 64 | 1017.9 |
| 20260507125804 | 53 | 270 | 9.0 | 23.0 | 0.00 | 0.02 | 0.00 | 64 | 1017.7 |
| 20260507125306 | 53 | 269 | 8.0 | 15.0 | 0.00 | 0.02 | 0.00 | 64 | 1017.7 |
| 20260507124804 | 53 | 252 | 10.0 | 20.0 | 0.00 | 0.02 | 0.00 | 63 | 1017.6 |
| 20260507124305 | 54 | 272 | 9.0 | 20.0 | 0.00 | 0.02 | 0.00 | 64 | 1017.7 |
| 20260507123804 | 54 | 286 | 9.0 | 21.0 | 0.00 | 0.02 | 0.00 | 64 | 1017.6 |
| 20260507123304 | 54 | 263 | 7.0 | 20.0 | 0.00 | 0.02 | 0.00 | 64 | 1017.6 |
| 20260507122805 | 54 | 268 | 6.0 | 12.0 | 0.00 | 0.02 | 0.00 | 64 | 1017.6 |
| 20260507122307 | 54 | 273 | 7.0 | 16.0 | 0.00 | 0.02 | 0.00 | 64 | 1017.6 |
| 20260507121804 | 54 | 263 | 5.0 | 21.0 | 0.00 | 0.02 | 0.00 | 64 | 1017.7 |
| 20260507120804 | 54 | 264 | 6.0 | 17.0 | 0.00 | 0.02 | 0.00 | 64 | 1017.6 |
| 20260507120304 | 54 | 273 | 7.0 | 17.0 | 0.00 | 0.02 | 0.00 | 64 | 1017.5 |
| 20260507115803 | 54 | 296 | 7.0 | 18.0 | 0.00 | 0.02 | 0.00 | 64 | 1017.5 |
| 20260507115307 | 54 | 269 | 10.0 | 23.0 | 0.00 | 0.02 | 0.00 | 63 | 1017.6 |
| 20260507114802 | 54 | 279 | 6.0 | 15.0 | 0.00 | 0.02 | 0.00 | 64 | 1017.5 |
| 20260507114302 | 54 | 291 | 5.0 | 15.0 | 0.00 | 0.02 | 0.00 | 64 | 1017.5 |
| 20260507113802 | 54 | 288 | 7.0 | 18.0 | 0.00 | 0.02 | 0.00 | 63 | 1017.4 |
| 20260507113302 | 54 | 259 | 11.0 | 20.0 | 0.00 | 0.02 | 0.00 | 62 | 1017.4 |
| 20260507112306 | 54 | 276 | 8.0 | 24.0 | 0.00 | 0.02 | 0.00 | 64 | 1017.3 |
| 20260507111802 | 54 | 226 | 12.0 | 30.0 | 0.00 | 0.02 | 0.00 | 63 | 1017.3 |
| 20260507111302 | 54 | 230 | 9.0 | 21.0 | 0.00 | 0.02 | 0.00 | 63 | 1017.2 |
| 20260507110802 | 54 | 215 | 8.0 | 16.0 | 0.00 | 0.02 | 0.00 | 62 | 1017.0 |
| 20260507105802 | 54 | 303 | 7.0 | 21.0 | 0.00 | 0.02 | 0.00 | 64 | 1017.0 |
| 20260507105306 | 54 | 302 | 6.0 | 23.0 | 0.00 | 0.02 | 0.00 | 64 | 1016.9 |